TIME,DELAY(SENSOR),PRES,OXYGEN,RAWTEMP,T(OPTODE),TCPHASE,FLUOR,BETA(BETA700),BETA(BETA412),BETA(BETA440),CDOM,C(CSC),ED(ED412.20),ED(ED444.00),ED(ED489.60),ED(ED554.30),LU(LU412.10),LU(LU443.90),LU(LU489.70),LU(LU554.70),COMP,TILTX,TILTY,CHECK
1360637712,5808,871.5000000000000000,34.6859703063964840,562.0181274414062000,4.4233360290527340,56.3533287048339840,55,99,99,77,82,15544,0,0,0,0,2147119936,2147775762,2147571318,2147565632,614,2,13,41671
1360641308,5807,938.9799804687500000,39.9144210815429700,567.1165161132812000,4.2651329040527340,55.5946693420410160,56,98,99,78,82,15544,0,0,0,0,2147124096,2147773979,2147574006,2147569216,978,2,13,456
1360644908,5809,947.9400024414062000,40.6890716552734400,567.5838012695312000,4.2506198883056640,55.4883689880371100,54,98,99,78,82,15543,0,0,0,0,2147122441,2147770806,2147572809,2147565485,21,3,13,21470
1360648508,5807,970.1199951171875000,42.0523681640625000,570.8587036132812000,4.1488738059997560,55.3242607116699200,55,99,100,78,81,15544,0,0,0,0,2147120905,2147778048,2147569453,2147570971,3470,2,13,7612
1360652108,5808,986.2500000000000000,41.6848716735839840,570.1516723632812000,4.1708469390869140,55.3695106506347660,56,98,99,79,82,15542,0,0,0,0,2147124827,2147770651,2147575826,2147568612,3408,2,13,30169
1360655708,5811,987.5700073242188000,40.9171295166015600,569.8585205078125000,4.1799578666687010,55.4798011779785160,55,98,100,78,81,15542,0,0,0,0,2147124041,2147773952,2147577243,2147570998,3421,2,13,39855
1360659308,5807,989.0200195312500000,41.5269889831543000,570.2719116210938000,4.1671118736267090,55.3931694030761700,55,99,100,78,81,15539,0,0,0,0,2147123629,2147771748,2147571830,2147572096,3490,2,13,51418
1360662908,5809,988.6799926757812000,40.9213600158691400,570.0745849609375000,4.1732430458068850,55.4778709411621100,55,99,99,78,82,15542,0,0,0,0,2147123858,2147771565,2147577545,2147568082,3338,2,13,54738
1360666508,5807,985.7500000000000000,41.2068595886230500,570.2360229492188000,4.1682281494140625,55.4391288757324200,54,100,100,78,82,15542,0,0,0,0,2147122569,2147773056,2147572726,2147572114,436,2,13,29024
1360670108,5811,980.0399780273438000,42.0432395935058600,571.4359130859375000,4.1309299468994140,55.3277816772460940,55,99,101,78,81,15534,0,0,0,0,2147119908,2147772224,2147574674,2147566189,21,2,13,10633
1360673708,5808,978.8300170898438000,43.3150596618652340,572.5324096679688000,4.0968379974365230,55.1548881530761700,55,98,100,78,82,15539,0,0,0,0,2147124928,2147773723,2147573366,2147570258,3500,2,13,15930
1360677308,5809,981.9500122070312000,43.2937088012695300,572.3242187500000000,4.1033129692077640,55.1553993225097660,55,98,101,78,80,15541,0,0,0,0,2147125101,2147771318,2147571730,2147572653,3588,3,13,19067
1360680908,5808,985.9699707031250000,43.3282699584960940,572.1522827148438000,4.1086559295654300,55.1526184082031250,56,99,99,79,82,15537,0,0,0,0,2147123602,2147774363,2147575716,2147569042,537,2,13,31386
1360684508,5811,982.9799804687500000,43.2675895690918000,572.1959838867188000,4.1072978973388670,55.1578102111816400,55,101,100,77,81,15539,0,0,0,0,2147123419,2147772589,2147574747,2147571940,14,2,13,13018
1360688108,5810,986.0200195312500000,42.4306983947753900,571.5394897460938000,4.1277098655700680,55.2745094299316400,55,98,99,78,81,15537,0,0,0,0,2147123657,2147769563,2147571318,2147570057,580,2,13,44400
1360691708,5808,992.9000244140625000,41.9889717102050800,571.2501831054688000,4.1367020606994630,55.3324089050293000,56,100,100,77,84,15539,0,0,0,0,2147124288,2147769965,2147573732,2147570395,3579,2,13,47346
1360695308,5808,992.9799804687500000,41.1634788513183600,570.9841918945312000,4.1449718475341800,55.4520111083984400,55,96,100,79,82,15537,0,0,0,0,2147123355,2147772470,2147571995,2147571017,122,2,13,62106
1360698908,5810,994.9099731445312000,41.4709892272949200,570.9421997070312000,4.1462779045104980,55.4100799560546900,56,98,100,77,81,15536,0,0,0,0,2147119296,2147769289,2147573833,2147568786,48,3,13,25623
1360702508,5807,995.3599853515625000,40.8627815246582000,570.9545898437500000,4.1458930969238280,55.5003890991210940,55,98,100,78,82,15533,0,0,0,0,2147123254,2147772681,2147573211,2147571446,126,3,13,451
1360706108,5808,991.9500122070312000,41.1235084533691400,570.9824218750000000,4.1450271606445310,55.4572181701660160,54,97,100,77,82,15536,0,0,0,0,2147124352,2147772178,2147576155,2147572032,283,2,13,60873
1360709708,5810,997.2000122070312000,41.0977897644043000,570.4069213867188000,4.1629137992858890,55.4548606872558600,54,97,100,80,82,15531,0,0,0,0,2147120667,2147770166,2147574820,2147570834,3421,2,13,2501
1360713308,5811,997.8200073242188000,40.6628417968750000,570.8605957031250000,4.1488151550292970,55.5274391174316400,56,98,101,78,83,15536,0,0,0,0,2147123931,2147770523,2147576283,2147566464,88,2,13,32504
1360716908,5810,997.4199829101562000,41.2677688598632800,570.9785766601562000,4.1451468467712400,55.4349212646484400,54,98,100,77,83,15535,0,0,0,0,2147122276,2147771538,2147576667,2147569115,3126,2,13,29816
1360720508,5809,996.6599731445312000,41.3233299255371100,570.9749755859375000,4.1452579498291020,55.4286003112793000,54,98,101,78,81,15532,0,0,0,0,2147122212,2147772416,2147575908,2147567926,3487,2,13,47973
1360724108,5809,990.7999877929688000,41.9709014892578100,571.7645263671875000,4.1207160949707030,55.3448715209960940,54,100,99,77,81,15529,0,0,0,0,2147121234,2147773229,2147570624,2147571273,218,3,13,53885
1360727708,5810,990.6900024414062000,41.9752998352050800,571.7614135742188000,4.1208109855651855,55.3445510864257800,55,97,99,79,82,15536,0,0,0,0,2147122953,2147770861,2147574939,2147568237,240,2,13,37768
1360731308,5810,984.0999755859375000,41.7457695007324200,572.2025756835938000,4.1070919036865230,55.3845100402832000,55,98,101,78,82,15537,0,0,0,0,2147124781,2147776804,2147573814,2147567396,481,3,13,56484
1360734908,5811,978.7999877929688000,42.4715309143066400,572.7186279296875000,4.0910468101501465,55.2788810729980500,56,99,100,78,82,15533,0,0,0,0,2147123017,2147775222,2147574537,2147570459,3356,2,13,52958
1360738508,5810,991.5599975585938000,42.6617889404296900,572.7260742187500000,4.0908131599426270,55.2534599304199200,55,100,100,78,81,15531,0,0,0,0,2147121700,2147779437,2147575661,2147567808,3437,2,13,25447
1360742108,5809,990.8599853515625000,42.6411399841308600,572.5161132812500000,4.0973448753356930,55.2549018859863300,56,97,100,80,81,15531,0,0,0,0,2147123254,2147774957,2147577627,2147569216,3573,2,13,64038
1360745708,5812,990.1699829101562000,42.5594902038574200,572.4149780273438000,4.1004910469055180,55.2619018554687500,54,97,101,77,81,15533,0,0,0,0,2147123702,2147770953,2147575488,2147568576,8,2,13,24523
1360749308,5807,985.6699829101562000,42.5190391540527340,572.7437744140625000,4.0902628898620605,55.2751693725585940,55,98,100,78,82,15532,0,0,0,0,2147122294,2147770176,2147573531,2147569106,3572,2,13,2052
1360752908,5811,991.5000000000000000,42.5888099670410160,572.7841796875000000,4.0890078544616700,55.2651596069335940,56,98,100,78,83,15531,0,0,0,0,2147125796,2147771465,2147576182,2147568091,146,2,13,62294
1360756508,5809,993.2800292968750000,42.1829795837402340,572.0499267578125000,4.1118412017822270,55.3138504028320300,55,97,99,77,81,15526,0,0,0,0,2147122660,2147775085,2147575387,2147567981,175,2,13,56168
1360760108,5812,991.8099975585938000,42.2663307189941400,572.2634887695312000,4.1051998138427730,55.3044509887695300,55,97,101,77,82,15528,0,0,0,0,2147122066,2147773302,2147575213,2147571401,3,2,13,32905
1360763708,5809,993.0800170898438000,42.1462097167968750,571.9660034179688000,4.1144499778747560,55.3187904357910160,55,99,99,78,83,15529,0,0,0,0,2147125065,2147774848,2147575433,2147568164,166,2,13,585
1360767308,5808,992.0100097656250000,42.1153106689453100,572.2609252929688000,4.1052799224853520,55.3253593444824200,55,97,101,79,81,15527,0,0,0,0,2147121270,2147773138,2147569828,2147569801,529,2,13,23430
1360770908,5809,992.8099975585938000,41.6214103698730500,571.2180786132812000,4.1377010345458980,55.3875083923339840,54,97,101,78,81,15526,0,0,0,0,2147125174,2147766893,2147577289,2147569801,287,3,13,15717
1360774508,5810,999.8599853515625000,40.5013694763183600,570.4478149414062000,4.1616439819335940,55.5454101562500000,54,97,101,77,81,15527,0,0,0,0,2147122560,2147774354,2147572918,2147570779,377,2,13,8565
1360778108,5810,1000.6599731445312000,40.1818084716796900,570.7318115234375000,4.1528167724609375,55.5968017578125000,55,98,98,77,82,15525,0,0,0,0,2147123483,2147772992,2147573385,2147570642,136,2,13,17798
1360781708,5810,1001.1099853515625000,40.1225700378418000,570.6948852539062000,4.1539649963378910,55.6052894592285160,54,103,100,77,82,15523,0,0,0,0,2147122075,2147767049,2147570550,2147570825,410,3,13,26047
1360782955,5809,994.6900024414062000,40.1944007873535160,570.6024169921875000,4.1568388938903810,55.5914688110351560,56,96,99,78,82,15525,0,0,0,0,2147124534,2147774116,2147570806,2147567049,3563,2,13,60061
